Weather in Tikhoretskoye

Russia / Omsk Oblast     54°24′37″N   74°04′15″E
temp.,
°C
wind,
m/s
gust,
m/s
humid.,
%
clouds,
%
prec.,
mm/h
press.,
hPa
HPBL,
m
17 january, mon
mon1700:00−1sw111981100 0.3 1000905
03:00−3sw11187797 0.0 10021129
06:00−7sw1018785 0.1 1006831
09:00−10sw917795 0.0 1010637
12:00−11sw818835 0.0 1011727
15:00−10sw7158589 0.0 1013727
18:00−11sw715875 0.0 1015437
21:00−10sw716865 0.0 1017458
18 january, tue
tue1800:00−11sw715875 0.0 1018425
03:00−12sw613905 0.0 1020306
06:00−14sw512925 0.0 1022235
09:00−17sw410955 0.0 1023142
12:00−14sw512915 0.0 1024235
15:00−12sw512905 0.0 1024268
18:00−14ssw410945 0.0 1025139
21:00−15sw410945 0.0 1026142
19 january, wed
wed1900:00−15sw49955 0.0 1026121
03:00−16sw38955 0.0 1026108
06:00−17sw49945 0.0 1026113
09:00−18sw37945 0.0 102798
12:00−15sw49915 0.0 1027162
15:00−13sw48905 0.0 1027184
18:00−16sw37925 0.0 102788
21:00−17sw36935 0.0 102879
20 january, thu
thu2000:00−18sw36945 0.0 102879
03:00−19wsw36965 0.0 102972
06:00−18wsw36975 0.0 102967
09:00−18wsw349872 0.0 103057
12:00−15wsw259638 0.0 1031108
15:00−13wsw25955 0.0 1031109
18:00−18wsw229954 0.0 103124
21:00−19wsw2210074 0.0 103220
21 january, fri
fri2100:00−20w2210096 0.0 103215
03:00−21wsw11100100 0.0 103210
06:00−21wnw11100100 0.1 10339
09:00−22nw11100100 0.0 10339
12:00−15nne1299100 0.1 103342
15:00−13n009874 0.0 10339
18:00−18nnw1110063 0.0 10349
21:00−19nnw22100100 0.0 103113